Time,TemperatureF,DewpointF,PressureIn,WindDirection,WindDirectionDegrees,WindSpeedMPH,WindSpeedGustMPH,Humidity,HourlyPrecipIn,Conditions,Clouds,dailyrainin,SoftwareType,DateUTC
2013-06-14 00:02:00,70.2,53.3,59.39,North,349,3.0,12.0,55,0.00,,,0.00,Wunderground PWS Mod,2013-06-14 04:02:00,
2013-06-14 00:04:00,70.2,53.8,59.39,NNW,328,6.0,12.0,56,0.00,,,0.00,Wunderground PWS Mod,2013-06-14 04:04:00,
2013-06-14 00:06:00,70.2,53.3,59.39,North,11,5.0,17.0,55,0.00,,,0.00,Wunderground PWS Mod,2013-06-14 04:06:00,
2013-06-14 00:08:00,70.0,53.6,29.56,NNW,338,8.0,19.0,56,0.00,,,0.00,Wunderground PWS Mod,2013-06-14 04:08:00,
2013-06-14 00:12:00,70.0,53.1,59.39,North,353,7.0,17.0,55,0.00,,,0.00,Wunderground PWS Mod,2013-06-14 04:12:00,
2013-06-14 00:18:00,69.9,53.0,59.40,North,7,9.0,17.0,55,0.00,,,0.00,Wunderground PWS Mod,2013-06-14 04:18:00,
2013-06-14 00:22:00,69.8,52.9,59.40,NNW,346,8.0,17.0,55,0.00,,,0.00,Wunderground PWS Mod,2013-06-14 04:22:00,
2013-06-14 00:28:00,69.7,53.3,59.40,NNE,18,3.0,17.0,56,0.00,,,0.00,Wunderground PWS Mod,2013-06-14 04:28:00,
2013-06-14 00:34:00,69.7,53.3,59.39,NNW,339,7.0,17.0,56,0.00,,,0.00,Wunderground PWS Mod,2013-06-14 04:34:00,
2013-06-14 00:42:00,69.6,52.7,59.39,NNW,344,12.0,19.0,55,0.00,,,0.00,Wunderground PWS Mod,2013-06-14 04:42:00,
2013-06-14 00:46:00,69.6,53.2,29.57,NNW,338,6.0,14.0,56,0.00,,,0.00,Wunderground PWS Mod,2013-06-14 04:46:00,
2013-06-14 00:48:00,69.6,53.2,59.39,North,350,7.0,19.0,56,0.00,,,0.00,Wunderground PWS Mod,2013-06-14 04:48:00,
2013-06-14 00:54:00,69.5,53.1,59.39,NNW,332,10.0,19.0,56,0.00,,,0.00,Wunderground PWS Mod,2013-06-14 04:54:00,
2013-06-14 01:02:00,69.5,53.1,59.40,NNW,329,8.0,19.0,56,0.00,,,0.00,Wunderground PWS Mod,2013-06-14 05:02:00,
2013-06-14 01:08:00,69.4,53.0,59.40,NW,323,11.0,19.0,56,0.00,,,0.00,Wunderground PWS Mod,2013-06-14 05:08:00,
2013-06-14 01:10:00,69.6,53.2,29.57,NNW,338,6.0,14.0,56,0.00,,,0.00,Wunderground PWS Mod,2013-06-14 05:10:00,
2013-06-14 01:14:00,69.4,53.0,59.39,North,354,9.0,19.0,56,0.00,,,0.00,Wunderground PWS Mod,2013-06-14 05:14:00,
2013-06-14 01:22:00,69.3,53.4,59.40,NNW,347,9.0,19.0,57,0.00,,,0.00,Wunderground PWS Mod,2013-06-14 05:22:00,
2013-06-14 01:28:00,69.1,53.2,59.40,NNW,328,6.0,19.0,57,0.00,,,0.00,Wunderground PWS Mod,2013-06-14 05:28:00,
2013-06-14 01:34:00,69.0,53.1,59.41,North,354,9.0,22.0,57,0.00,,,0.00,Wunderground PWS Mod,2013-06-14 05:34:00,
2013-06-14 01:42:00,68.9,53.5,59.41,North,9,6.0,22.0,58,0.00,,,0.00,Wunderground PWS Mod,2013-06-14 05:42:00,
2013-06-14 01:48:00,68.6,53.7,59.42,North,3,7.0,22.0,59,0.00,,,0.00,Wunderground PWS Mod,2013-06-14 05:48:00,
2013-06-14 01:54:00,67.5,54.0,59.43,NNE,18,7.0,22.0,62,0.00,,,0.00,Wunderground PWS Mod,2013-06-14 05:54:00,
2013-06-14 02:02:00,66.7,54.1,59.43,North,359,7.0,22.0,64,0.00,,,0.00,Wunderground PWS Mod,2013-06-14 06:02:00,
2013-06-14 02:08:00,66.4,54.7,59.43,NNW,337,7.0,22.0,66,0.00,,,0.00,Wunderground PWS Mod,2013-06-14 06:08:00,
2013-06-14 02:10:00,68.3,55.6,29.60,North,0,7.0,20.0,64,0.00,,,0.00,Wunderground PWS Mod,2013-06-14 06:10:00,
2013-06-14 02:12:00,68.3,55.6,29.60,North,0,7.0,20.0,64,0.00,,,0.00,Wunderground PWS Mod,2013-06-14 06:12:00,
2013-06-14 02:14:00,66.0,53.0,59.44,NNE,22,4.0,22.0,63,0.00,,,0.00,Wunderground PWS Mod,2013-06-14 06:14:00,
2013-06-14 02:22:00,65.6,53.9,59.43,North,4,13.0,22.0,66,0.00,,,0.00,Wunderground PWS Mod,2013-06-14 06:22:00,
2013-06-14 02:28:00,65.4,54.2,59.44,North,10,3.0,22.0,67,0.00,,,0.00,Wunderground PWS Mod,2013-06-14 06:28:00,
2013-06-14 02:34:00,65.3,54.1,59.45,NNE,27,11.0,22.0,67,0.00,,,0.00,Wunderground PWS Mod,2013-06-14 06:34:00,
2013-06-14 02:42:00,65.1,53.5,59.45,NNE,16,6.0,22.0,66,0.00,,,0.00,Wunderground PWS Mod,2013-06-14 06:42:00,
2013-06-14 02:44:00,66.0,54.7,29.61,North,0,6.0,15.0,67,0.00,,,0.00,Wunderground PWS Mod,2013-06-14 06:44:00,
2013-06-14 02:48:00,65.2,54.0,59.44,North,6,4.0,22.0,67,0.00,,,0.00,Wunderground PWS Mod,2013-06-14 06:48:00,
2013-06-14 02:54:00,65.1,53.9,59.45,North,0,4.0,22.0,67,0.00,,,0.00,Wunderground PWS Mod,2013-06-14 06:54:00,
2013-06-14 03:02:00,65.1,54.3,59.45,NNE,24,6.0,15.0,68,0.00,,,0.00,Wunderground PWS Mod,2013-06-14 07:02:00,
2013-06-14 03:08:00,64.9,53.7,59.45,North,6,3.0,15.0,67,0.00,,,0.00,Wunderground PWS Mod,2013-06-14 07:08:00,
2013-06-14 03:10:00,65.2,54.0,29.62,North,0,6.0,15.0,67,0.00,,,0.00,Wunderground PWS Mod,2013-06-14 07:10:00,
2013-06-14 03:12:00,65.2,54.0,29.62,North,0,6.0,15.0,67,0.00,,,0.00,Wunderground PWS Mod,2013-06-14 07:12:00,
2013-06-14 03:14:00,64.9,54.5,59.46,NNE,14,5.0,15.0,69,0.00,,,0.00,Wunderground PWS Mod,2013-06-14 07:14:00,
2013-06-14 03:22:00,65.0,54.2,59.46,NNW,340,5.0,15.0,68,0.00,,,0.00,Wunderground PWS Mod,2013-06-14 07:22:00,
2013-06-14 03:28:00,64.9,54.5,59.46,NE,44,3.0,15.0,69,0.00,,,0.00,Wunderground PWS Mod,2013-06-14 07:28:00,
2013-06-14 03:34:00,64.4,54.0,59.47,NNE,28,3.0,15.0,69,0.00,,,0.00,Wunderground PWS Mod,2013-06-14 07:34:00,
2013-06-14 03:42:00,64.1,53.3,59.47,NE,34,9.0,15.0,68,0.00,,,0.00,Wunderground PWS Mod,2013-06-14 07:42:00,
2013-06-14 03:48:00,63.3,52.2,59.47,NNE,24,12.0,15.0,67,0.00,,,0.00,Wunderground PWS Mod,2013-06-14 07:48:00,
2013-06-14 03:54:00,62.7,52.4,59.48,NNE,29,13.0,15.0,69,0.00,,,0.00,Wunderground PWS Mod,2013-06-14 07:54:00,
2013-06-14 04:02:00,62.7,52.4,59.48,NNE,22,3.0,13.0,69,0.00,,,0.00,Wunderground PWS Mod,2013-06-14 08:02:00,
2013-06-14 04:08:00,62.5,52.2,59.49,NNE,19,8.0,18.0,69,0.00,,,0.00,Wunderground PWS Mod,2013-06-14 08:08:00,
2013-06-14 04:14:00,62.8,52.5,59.49,NNE,19,4.0,18.0,69,0.00,,,0.00,Wunderground PWS Mod,2013-06-14 08:14:00,
2013-06-14 04:22:00,62.8,52.5,59.50,NNE,22,5.0,18.0,69,0.00,,,0.00,Wunderground PWS Mod,2013-06-14 08:22:00,
2013-06-14 04:28:00,62.5,52.2,59.50,NNE,18,3.0,18.0,69,0.00,,,0.00,Wunderground PWS Mod,2013-06-14 08:28:00,
2013-06-14 04:34:00,62.4,52.9,59.51,NNE,21,4.0,18.0,71,0.00,,,0.00,Wunderground PWS Mod,2013-06-14 08:34:00,
2013-06-14 04:42:00,62.5,53.0,59.51,NNE,24,4.0,18.0,71,0.00,,,0.00,Wunderground PWS Mod,2013-06-14 08:42:00,
2013-06-14 04:44:00,62.7,52.8,29.67,NNE,23,6.0,15.0,70,0.00,,,0.00,Wunderground PWS Mod,2013-06-14 08:44:00,
2013-06-14 04:48:00,62.6,52.7,59.51,NNE,18,8.0,18.0,70,0.00,,,0.00,Wunderground PWS Mod,2013-06-14 08:48:00,
2013-06-14 04:54:00,62.5,52.6,59.51,NNE,21,6.0,18.0,70,0.00,,,0.00,Wunderground PWS Mod,2013-06-14 08:54:00,
2013-06-14 05:02:00,62.4,52.9,59.52,NNE,23,6.0,15.0,71,0.00,,,0.00,Wunderground PWS Mod,2013-06-14 09:02:00,
2013-06-14 05:08:00,62.3,52.8,59.52,NNE,17,5.0,15.0,71,0.00,,,0.00,Wunderground PWS Mod,2013-06-14 09:08:00,
2013-06-14 05:14:00,61.9,52.0,59.53,NNE,32,10.0,15.0,70,0.00,,,0.00,Wunderground PWS Mod,2013-06-14 09:14:00,
2013-06-14 05:22:00,61.8,51.5,59.53,NE,36,3.0,15.0,69,0.00,,,0.00,Wunderground PWS Mod,2013-06-14 09:22:00,
2013-06-14 05:28:00,61.9,51.2,59.53,NNE,29,8.0,15.0,68,0.00,,,0.00,Wunderground PWS Mod,2013-06-14 09:28:00,
2013-06-14 05:34:00,61.5,51.6,59.53,NNE,28,3.0,15.0,70,0.00,,,0.00,Wunderground PWS Mod,2013-06-14 09:34:00,
2013-06-14 05:42:00,62.2,51.9,59.54,NNE,14,3.0,15.0,69,0.00,,,0.00,Wunderground PWS Mod,2013-06-14 09:42:00,
2013-06-14 05:46:00,62.0,51.3,29.70,NNE,23,5.0,12.0,68,0.00,,,0.01,Wunderground PWS Mod,2013-06-14 09:46:00,
2013-06-14 05:48:00,62.0,52.1,59.55,North,7,4.0,15.0,70,0.00,,,0.00,Wunderground PWS Mod,2013-06-14 09:48:00,
2013-06-14 05:54:00,61.5,52.0,59.55,North,351,7.0,15.0,71,0.00,,,0.00,Wunderground PWS Mod,2013-06-14 09:54:00,
2013-06-14 06:02:00,60.6,51.9,59.55,NNE,16,6.0,12.0,73,0.00,,,0.00,Wunderground PWS Mod,2013-06-14 10:02:00,
2013-06-14 06:08:00,60.2,52.6,59.55,North,352,1.0,12.0,76,0.00,,,0.00,Wunderground PWS Mod,2013-06-14 10:08:00,
2013-06-14 06:14:00,59.9,53.0,59.56,North,4,1.0,12.0,78,0.00,,,0.00,Wunderground PWS Mod,2013-06-14 10:14:00,
2013-06-14 06:22:00,60.8,53.5,59.56,North,6,2.0,12.0,77,0.00,,,0.00,Wunderground PWS Mod,2013-06-14 10:22:00,
2013-06-14 06:28:00,60.3,53.1,59.56,NNW,330,1.0,12.0,77,0.00,,,0.00,Wunderground PWS Mod,2013-06-14 10:28:00,
2013-06-14 06:34:00,60.3,53.1,59.56,North,358,2.0,12.0,77,0.00,,,0.00,Wunderground PWS Mod,2013-06-14 10:34:00,
2013-06-14 06:42:00,60.3,53.1,59.57,NNE,24,5.0,13.0,77,0.00,,,0.00,Wunderground PWS Mod,2013-06-14 10:42:00,
2013-06-14 06:44:00,61.0,53.7,29.73,North,0,3.0,13.0,77,0.01,,,0.01,Wunderground PWS Mod,2013-06-14 10:44:00,
2013-06-14 06:48:00,60.3,52.7,59.57,North,8,2.0,13.0,76,0.00,,,0.00,Wunderground PWS Mod,2013-06-14 10:48:00,
2013-06-14 06:54:00,59.9,52.3,59.57,NNE,23,2.0,13.0,76,0.00,,,0.00,Wunderground PWS Mod,2013-06-14 10:54:00,
2013-06-14 07:02:00,60.6,53.3,59.58,NNE,24,0.0,13.0,77,0.00,,,0.00,Wunderground PWS Mod,2013-06-14 11:02:00,
2013-06-14 07:08:00,60.4,53.2,59.58,NNW,331,5.0,13.0,77,0.00,,,0.00,Wunderground PWS Mod,2013-06-14 11:08:00,
2013-06-14 07:14:00,60.2,53.3,59.58,NNW,332,4.0,13.0,78,0.00,,,0.00,Wunderground PWS Mod,2013-06-14 11:14:00,
2013-06-14 07:22:00,60.0,53.1,59.58,North,352,3.0,13.0,78,0.00,,,0.00,Wunderground PWS Mod,2013-06-14 11:22:00,
2013-06-14 07:28:00,59.9,53.4,59.58,NNW,343,5.0,13.0,79,0.00,,,0.00,Wunderground PWS Mod,2013-06-14 11:28:00,
2013-06-14 07:34:00,59.8,53.6,59.59,North,352,2.0,13.0,80,0.00,,,0.00,Wunderground PWS Mod,2013-06-14 11:34:00,
2013-06-14 07:42:00,59.7,53.5,59.59,NNW,335,3.0,13.0,80,0.00,,,0.00,Wunderground PWS Mod,2013-06-14 11:42:00,
2013-06-14 07:46:00,60.2,53.7,29.76,NNW,338,2.0,8.0,79,0.02,,,0.05,Wunderground PWS Mod,2013-06-14 11:46:00,
2013-06-14 07:48:00,59.7,53.9,59.59,NW,323,4.0,13.0,81,0.00,,,0.00,Wunderground PWS Mod,2013-06-14 11:48:00,
2013-06-14 07:54:00,59.9,54.4,59.60,NNW,332,2.0,13.0,82,0.00,,,0.00,Wunderground PWS Mod,2013-06-14 11:54:00,
2013-06-14 08:02:00,59.9,54.4,59.60,WNW,301,2.0,8.0,82,0.00,,,0.00,Wunderground PWS Mod,2013-06-14 12:02:00,
2013-06-14 08:08:00,59.7,53.9,59.60,NNW,340,4.0,8.0,81,0.00,,,0.00,Wunderground PWS Mod,2013-06-14 12:08:00,
2013-06-14 08:14:00,59.8,54.0,59.61,NW,316,2.0,8.0,81,0.00,,,0.00,Wunderground PWS Mod,2013-06-14 12:14:00,
2013-06-14 08:22:00,60.0,54.5,59.61,NNW,346,2.0,8.0,82,0.00,,,0.00,Wunderground PWS Mod,2013-06-14 12:22:00,
2013-06-14 08:28:00,60.2,54.7,59.61,North,1,4.0,8.0,82,0.00,,,0.00,Wunderground PWS Mod,2013-06-14 12:28:00,
2013-06-14 08:36:00,60.4,54.5,59.62,North,359,3.0,8.0,81,0.00,,,0.00,Wunderground PWS Mod,2013-06-14 12:36:00,
2013-06-14 08:42:00,60.2,54.3,59.62,NNW,340,4.0,10.0,81,0.00,,,0.00,Wunderground PWS Mod,2013-06-14 12:42:00,
2013-06-14 08:48:00,60.2,54.3,59.62,North,8,2.0,10.0,81,0.00,,,0.00,Wunderground PWS Mod,2013-06-14 12:48:00,
2013-06-14 08:50:00,60.3,54.8,29.81,NNE,23,3.0,8.0,82,0.02,,,0.05,Wunderground PWS Mod,2013-06-14 12:50:00,
2013-06-14 08:54:00,60.1,54.6,59.63,NNE,26,4.0,10.0,82,0.00,,,0.00,Wunderground PWS Mod,2013-06-14 12:54:00,
2013-06-14 09:02:00,61.0,55.5,59.64,NNE,27,4.0,10.0,82,0.00,,,0.00,Wunderground PWS Mod,2013-06-14 13:02:00,
2013-06-14 09:08:00,61.0,54.8,59.63,NNE,14,8.0,10.0,80,0.00,,,0.00,Wunderground PWS Mod,2013-06-14 13:08:00,
2013-06-14 09:10:00,60.3,54.8,29.81,NNE,23,3.0,8.0,82,0.00,,,0.06,Wunderground PWS Mod,2013-06-14 13:10:00,
2013-06-14 09:12:00,60.3,54.8,29.81,NNE,23,3.0,8.0,82,0.00,,,0.06,Wunderground PWS Mod,2013-06-14 13:12:00,
2013-06-14 09:14:00,60.7,54.1,59.64,North,358,4.0,10.0,79,0.00,,,0.00,Wunderground PWS Mod,2013-06-14 13:14:00,
2013-06-14 09:22:00,60.9,54.0,59.65,NNE,20,3.0,10.0,78,0.00,,,0.00,Wunderground PWS Mod,2013-06-14 13:22:00,
2013-06-14 09:28:00,61.0,53.7,59.64,NNE,29,6.0,12.0,77,0.00,,,0.00,Wunderground PWS Mod,2013-06-14 13:28:00,
2013-06-14 09:34:00,61.3,53.7,59.65,NNE,15,4.0,12.0,76,0.00,,,0.00,Wunderground PWS Mod,2013-06-14 13:34:00,
2013-06-14 09:42:00,61.6,53.2,59.65,NNE,19,6.0,18.0,74,0.00,,,0.00,Wunderground PWS Mod,2013-06-14 13:42:00,
2013-06-14 09:44:00,60.9,53.3,29.82,NNE,23,5.0,18.0,76,0.01,,,0.06,Wunderground PWS Mod,2013-06-14 13:44:00,
2013-06-14 09:48:00,61.6,53.2,59.65,NNE,18,3.0,18.0,74,0.00,,,0.00,Wunderground PWS Mod,2013-06-14 13:48:00,
2013-06-14 09:54:00,62.8,54.4,59.65,NNE,27,4.0,18.0,74,0.00,,,0.00,Wunderground PWS Mod,2013-06-14 13:54:00,
2013-06-14 10:02:00,63.0,51.9,59.66,NNE,23,7.0,18.0,67,0.00,,,0.00,Wunderground PWS Mod,2013-06-14 14:02:00,
2013-06-14 10:08:00,63.2,51.2,59.66,NNE,30,15.0,21.0,65,0.00,,,0.00,Wunderground PWS Mod,2013-06-14 14:08:00,
2013-06-14 10:14:00,63.0,49.8,59.67,NNE,16,6.0,21.0,62,0.00,,,0.00,Wunderground PWS Mod,2013-06-14 14:14:00,
2013-06-14 10:22:00,63.3,49.2,59.67,North,5,5.0,21.0,60,0.00,,,0.00,Wunderground PWS Mod,2013-06-14 14:22:00,
2013-06-14 10:28:00,63.5,48.5,59.67,NE,39,8.0,21.0,58,0.00,,,0.00,Wunderground PWS Mod,2013-06-14 14:28:00,
2013-06-14 10:34:00,64.1,49.5,59.68,NNE,33,9.0,21.0,59,0.00,,,0.00,Wunderground PWS Mod,2013-06-14 14:34:00,
2013-06-14 10:42:00,64.5,48.4,59.68,NE,50,7.0,26.0,56,0.00,,,0.00,Wunderground PWS Mod,2013-06-14 14:42:00,
2013-06-14 10:46:00,64.7,48.6,29.85,NNE,23,9.0,26.0,56,0.00,,,0.06,Wunderground PWS Mod,2013-06-14 14:46:00,
2013-06-14 10:48:00,65.1,49.5,59.68,NE,42,6.0,26.0,57,0.00,,,0.00,Wunderground PWS Mod,2013-06-14 14:48:00,
2013-06-14 10:54:00,65.3,47.7,59.68,North,0,13.0,26.0,53,0.00,,,0.00,Wunderground PWS Mod,2013-06-14 14:54:00,
2013-06-14 11:02:00,65.4,48.3,59.68,ENE,59,2.0,26.0,54,0.00,,,0.00,Wunderground PWS Mod,2013-06-14 15:02:00,
2013-06-14 11:08:00,65.7,48.6,59.69,NE,34,9.0,26.0,54,0.00,,,0.00,Wunderground PWS Mod,2013-06-14 15:08:00,
2013-06-14 11:10:00,64.7,48.6,29.85,NNE,23,9.0,26.0,56,0.00,,,0.06,Wunderground PWS Mod,2013-06-14 15:10:00,
2013-06-14 11:14:00,65.8,47.7,59.69,NE,39,3.0,26.0,52,0.00,,,0.00,Wunderground PWS Mod,2013-06-14 15:14:00,
2013-06-14 11:22:00,66.8,48.6,59.69,NNE,23,12.0,26.0,52,0.00,,,0.00,Wunderground PWS Mod,2013-06-14 15:22:00,
2013-06-14 11:28:00,66.8,48.1,59.68,North,4,9.0,26.0,51,0.00,,,0.00,Wunderground PWS Mod,2013-06-14 15:28:00,
2013-06-14 11:34:00,67.1,47.8,59.69,NNE,18,5.0,26.0,50,0.00,,,0.00,Wunderground PWS Mod,2013-06-14 15:34:00,
2013-06-14 11:42:00,67.6,46.1,59.69,NE,34,14.0,26.0,46,0.00,,,0.00,Wunderground PWS Mod,2013-06-14 15:42:00,
2013-06-14 11:46:00,67.9,47.5,29.86,NNE,23,6.0,18.0,48,0.00,,,0.06,Wunderground PWS Mod,2013-06-14 15:46:00,
2013-06-14 11:48:00,68.0,48.1,59.69,NNE,25,6.0,26.0,49,0.00,,,0.00,Wunderground PWS Mod,2013-06-14 15:48:00,
2013-06-14 11:54:00,68.7,48.2,59.69,NE,34,2.0,26.0,48,0.00,,,0.00,Wunderground PWS Mod,2013-06-14 15:54:00,
2013-06-14 12:02:00,69.2,49.2,59.70,NE,39,6.0,22.0,49,0.00,,,0.00,Wunderground PWS Mod,2013-06-14 16:02:00,
2013-06-14 12:08:00,69.3,48.2,59.70,North,5,3.0,22.0,47,0.00,,,0.00,Wunderground PWS Mod,2013-06-14 16:08:00,
2013-06-14 12:10:00,67.9,47.5,29.86,NNE,23,6.0,18.0,48,0.00,,,0.06,Wunderground PWS Mod,2013-06-14 16:10:00,
2013-06-14 12:12:00,67.9,47.5,29.86,NNE,23,6.0,18.0,48,0.00,,,0.06,Wunderground PWS Mod,2013-06-14 16:12:00,
2013-06-14 12:14:00,69.0,47.4,59.70,NNE,28,7.0,22.0,46,0.00,,,0.00,Wunderground PWS Mod,2013-06-14 16:14:00,
2013-06-14 12:22:00,69.0,47.4,59.70,NNE,33,5.0,22.0,46,0.00,,,0.00,Wunderground PWS Mod,2013-06-14 16:22:00,
2013-06-14 12:28:00,69.0,47.9,59.70,NNE,20,10.0,22.0,47,0.00,,,0.00,Wunderground PWS Mod,2013-06-14 16:28:00,
2013-06-14 12:34:00,69.5,47.8,59.70,NE,34,6.0,22.0,46,0.00,,,0.00,Wunderground PWS Mod,2013-06-14 16:34:00,
2013-06-14 12:42:00,70.2,50.1,59.70,NNE,33,7.0,22.0,49,0.00,,,0.00,Wunderground PWS Mod,2013-06-14 16:42:00,
2013-06-14 12:44:00,69.2,48.1,29.87,NE,45,6.0,18.0,47,0.00,,,0.06,Wunderground PWS Mod,2013-06-14 16:44:00,
2013-06-14 12:48:00,70.2,48.4,59.70,NNE,33,9.0,22.0,46,0.00,,,0.00,Wunderground PWS Mod,2013-06-14 16:48:00,
2013-06-14 12:54:00,69.8,48.1,59.70,ENE,60,4.0,22.0,46,0.00,,,0.00,Wunderground PWS Mod,2013-06-14 16:54:00,
2013-06-14 13:02:00,69.9,48.2,59.70,NE,55,7.0,18.0,46,0.00,,,0.00,Wunderground PWS Mod,2013-06-14 17:02:00,
2013-06-14 13:08:00,70.3,47.9,59.70,North,355,4.0,18.0,45,0.00,,,0.00,Wunderground PWS Mod,2013-06-14 17:08:00,
2013-06-14 13:10:00,69.9,48.7,29.87,NE,45,5.0,16.0,47,0.00,,,0.06,Wunderground PWS Mod,2013-06-14 17:10:00,
2013-06-14 13:12:00,69.9,48.7,29.87,NE,45,5.0,16.0,47,0.00,,,0.06,Wunderground PWS Mod,2013-06-14 17:12:00,
2013-06-14 13:14:00,70.6,48.8,59.70,North,349,3.0,18.0,46,0.00,,,0.00,Wunderground PWS Mod,2013-06-14 17:14:00,
2013-06-14 13:22:00,71.3,49.4,59.70,NE,42,6.0,18.0,46,0.00,,,0.00,Wunderground PWS Mod,2013-06-14 17:22:00,
2013-06-14 13:28:00,71.2,48.8,59.70,North,5,5.0,18.0,45,0.00,,,0.00,Wunderground PWS Mod,2013-06-14 17:28:00,
2013-06-14 13:34:00,72.0,48.9,59.70,NE,41,3.0,18.0,44,0.00,,,0.00,Wunderground PWS Mod,2013-06-14 17:34:00,
2013-06-14 13:42:00,72.9,49.7,59.70,NNE,27,9.0,18.0,44,0.00,,,0.00,Wunderground PWS Mod,2013-06-14 17:42:00,
2013-06-14 13:44:00,70.7,47.7,29.87,NNE,23,5.0,16.0,44,0.00,,,0.06,Wunderground PWS Mod,2013-06-14 17:44:00,
2013-06-14 13:48:00,72.6,49.4,59.70,North,6,5.0,18.0,44,0.00,,,0.00,Wunderground PWS Mod,2013-06-14 17:48:00,
2013-06-14 13:54:00,72.7,50.7,59.70,NE,44,2.0,18.0,46,0.00,,,0.00,Wunderground PWS Mod,2013-06-14 17:54:00,
2013-06-14 14:02:00,73.3,49.4,59.70,NNW,336,9.0,16.0,43,0.00,,,0.00,Wunderground PWS Mod,2013-06-14 18:02:00,
2013-06-14 14:08:00,72.7,50.7,59.70,NNW,347,6.0,19.0,46,0.00,,,0.00,Wunderground PWS Mod,2013-06-14 18:08:00,
2013-06-14 14:14:00,73.2,51.2,59.70,NNW,330,5.0,19.0,46,0.00,,,0.00,Wunderground PWS Mod,2013-06-14 18:14:00,
2013-06-14 14:22:00,73.5,50.2,59.69,North,1,4.0,19.0,44,0.00,,,0.00,Wunderground PWS Mod,2013-06-14 18:22:00,
2013-06-14 14:28:00,73.5,51.4,59.69,North,351,3.0,19.0,46,0.00,,,0.00,Wunderground PWS Mod,2013-06-14 18:28:00,
2013-06-14 14:34:00,73.4,50.8,59.70,North,1,1.0,19.0,45,0.00,,,0.00,Wunderground PWS Mod,2013-06-14 18:34:00,
2013-06-14 14:42:00,73.9,51.2,59.70,WNW,289,4.0,19.0,45,0.00,,,0.00,Wunderground PWS Mod,2013-06-14 18:42:00,
2013-06-14 14:46:00,74.2,50.3,29.87,NNE,23,4.0,13.0,43,0.00,,,0.06,Wunderground PWS Mod,2013-06-14 18:46:00,
2013-06-14 14:48:00,73.8,51.7,59.70,NNW,332,4.0,19.0,46,0.00,,,0.00,Wunderground PWS Mod,2013-06-14 18:48:00,
2013-06-14 14:54:00,75.1,52.3,59.70,North,6,5.0,19.0,45,0.00,,,0.00,Wunderground PWS Mod,2013-06-14 18:54:00,
2013-06-14 15:02:00,75.2,51.8,59.70,North,9,4.0,13.0,44,0.00,,,0.00,Wunderground PWS Mod,2013-06-14 19:02:00,
2013-06-14 15:08:00,75.2,51.8,59.71,NNE,22,6.0,13.0,44,0.00,,,0.00,Wunderground PWS Mod,2013-06-14 19:08:00,
2013-06-14 15:10:00,74.2,50.3,29.87,NNE,23,4.0,13.0,43,0.00,,,0.06,Wunderground PWS Mod,2013-06-14 19:10:00,
2013-06-14 15:14:00,75.0,50.3,59.70,NNW,335,2.0,13.0,42,0.00,,,0.00,Wunderground PWS Mod,2013-06-14 19:14:00,
2013-06-14 15:22:00,75.2,51.2,59.70,North,5,4.0,13.0,43,0.00,,,0.00,Wunderground PWS Mod,2013-06-14 19:22:00,
2013-06-14 15:28:00,75.9,51.2,59.70,NNW,347,5.0,13.0,42,0.00,,,0.00,Wunderground PWS Mod,2013-06-14 19:28:00,
2013-06-14 15:34:00,76.2,52.1,59.70,NE,42,4.0,13.0,43,0.00,,,0.00,Wunderground PWS Mod,2013-06-14 19:34:00,
2013-06-14 15:42:00,76.3,50.2,59.70,NNW,344,5.0,14.0,40,0.00,,,0.00,Wunderground PWS Mod,2013-06-14 19:42:00,
2013-06-14 15:46:00,76.4,50.3,29.86,North,0,5.0,14.0,40,0.00,,,0.06,Wunderground PWS Mod,2013-06-14 19:46:00,
2013-06-14 15:48:00,76.3,51.5,59.70,NW,320,3.0,14.0,42,0.00,,,0.00,Wunderground PWS Mod,2013-06-14 19:48:00,
2013-06-14 15:54:00,76.8,50.6,59.70,NNW,342,5.0,14.0,40,0.00,,,0.00,Wunderground PWS Mod,2013-06-14 19:54:00,
2013-06-14 16:02:00,76.7,50.6,59.69,North,2,4.0,14.0,40,0.00,,,0.00,Wunderground PWS Mod,2013-06-14 20:02:00,
2013-06-14 16:08:00,76.7,51.9,59.69,North,357,2.0,14.0,42,0.00,,,0.00,Wunderground PWS Mod,2013-06-14 20:08:00,
2013-06-14 16:14:00,76.7,50.6,59.69,NNW,338,5.0,14.0,40,0.00,,,0.00,Wunderground PWS Mod,2013-06-14 20:14:00,
2013-06-14 16:22:00,77.7,51.5,59.69,North,9,5.0,14.0,40,0.00,,,0.00,Wunderground PWS Mod,2013-06-14 20:22:00,
2013-06-14 16:28:00,77.7,50.8,59.69,NNW,343,8.0,14.0,39,0.00,,,0.00,Wunderground PWS Mod,2013-06-14 20:28:00,
2013-06-14 16:34:00,77.7,50.8,59.69,NNW,335,4.0,14.0,39,0.00,,,0.00,Wunderground PWS Mod,2013-06-14 20:34:00,
2013-06-14 16:42:00,78.2,50.5,59.68,NNE,23,4.0,14.0,38,0.00,,,0.00,Wunderground PWS Mod,2013-06-14 20:42:00,
2013-06-14 16:48:00,77.9,49.5,59.68,NNW,346,1.0,14.0,37,0.00,,,0.00,Wunderground PWS Mod,2013-06-14 20:48:00,
2013-06-14 16:54:00,78.5,50.8,59.68,North,353,0.0,14.0,38,0.00,,,0.00,Wunderground PWS Mod,2013-06-14 20:54:00,
2013-06-14 17:02:00,79.0,48.2,59.68,North,351,3.0,14.0,34,0.00,,,0.00,Wunderground PWS Mod,2013-06-14 21:02:00,
2013-06-14 17:08:00,78.5,49.3,59.68,North,11,3.0,17.0,36,0.00,,,0.00,Wunderground PWS Mod,2013-06-14 21:08:00,
2013-06-14 17:10:00,77.6,47.8,29.85,North,0,4.0,17.0,35,0.00,,,0.06,Wunderground PWS Mod,2013-06-14 21:10:00,
2013-06-14 17:12:00,77.6,47.8,29.85,North,0,4.0,17.0,35,0.00,,,0.06,Wunderground PWS Mod,2013-06-14 21:12:00,
2013-06-14 17:14:00,78.9,49.7,59.68,NNW,332,4.0,17.0,36,0.00,,,0.00,Wunderground PWS Mod,2013-06-14 21:14:00,
2013-06-14 17:22:00,78.4,49.2,59.69,North,4,2.0,17.0,36,0.00,,,0.00,Wunderground PWS Mod,2013-06-14 21:22:00,
2013-06-14 17:28:00,78.9,48.9,59.68,NNW,331,3.0,17.0,35,0.00,,,0.00,Wunderground PWS Mod,2013-06-14 21:28:00,
2013-06-14 17:34:00,78.8,48.8,59.68,NNE,20,3.0,17.0,35,0.00,,,0.00,Wunderground PWS Mod,2013-06-14 21:34:00,
2013-06-14 17:42:00,78.9,50.4,59.68,NNW,339,3.0,17.0,37,0.00,,,0.00,Wunderground PWS Mod,2013-06-14 21:42:00,
2013-06-14 17:48:00,79.1,48.3,59.69,NNW,342,6.0,17.0,34,0.00,,,0.00,Wunderground PWS Mod,2013-06-14 21:48:00,
2013-06-14 17:54:00,78.5,49.3,59.69,NNW,345,5.0,17.0,36,0.00,,,0.00,Wunderground PWS Mod,2013-06-14 21:54:00,
2013-06-14 18:02:00,78.5,49.3,59.68,NNW,339,5.0,13.0,36,0.00,,,0.00,Wunderground PWS Mod,2013-06-14 22:02:00,
2013-06-14 18:08:00,78.4,49.2,59.69,NNW,331,3.0,13.0,36,0.00,,,0.00,Wunderground PWS Mod,2013-06-14 22:08:00,
2013-06-14 18:10:00,78.8,49.6,29.85,NNW,338,4.0,12.0,36,0.00,,,0.06,Wunderground PWS Mod,2013-06-14 22:10:00,
2013-06-14 18:12:00,78.8,49.6,29.85,NNW,338,4.0,12.0,36,0.00,,,0.06,Wunderground PWS Mod,2013-06-14 22:12:00,
2013-06-14 18:14:00,78.8,49.6,59.69,NNW,345,5.0,13.0,36,0.00,,,0.00,Wunderground PWS Mod,2013-06-14 22:14:00,
2013-06-14 18:22:00,79.1,49.8,59.69,North,353,5.0,13.0,36,0.00,,,0.00,Wunderground PWS Mod,2013-06-14 22:22:00,
2013-06-14 18:28:00,78.7,49.5,59.69,NNE,12,3.0,13.0,36,0.00,,,0.00,Wunderground PWS Mod,2013-06-14 22:28:00,
2013-06-14 18:34:00,78.6,48.7,59.69,NNW,339,5.0,13.0,35,0.00,,,0.00,Wunderground PWS Mod,2013-06-14 22:34:00,
2013-06-14 18:42:00,78.6,49.4,59.69,NNW,330,7.0,13.0,36,0.00,,,0.00,Wunderground PWS Mod,2013-06-14 22:42:00,
2013-06-14 18:48:00,78.7,49.5,59.69,NW,309,2.0,13.0,36,0.00,,,0.00,Wunderground PWS Mod,2013-06-14 22:48:00,
2013-06-14 18:54:00,78.7,50.2,59.69,NNW,330,7.0,13.0,37,0.00,,,0.00,Wunderground PWS Mod,2013-06-14 22:54:00,
2013-06-14 19:02:00,78.5,50.1,59.69,NW,322,3.0,13.0,37,0.00,,,0.00,Wunderground PWS Mod,2013-06-14 23:02:00,
2013-06-14 19:08:00,78.2,51.2,59.69,NNW,336,4.0,14.0,39,0.00,,,0.00,Wunderground PWS Mod,2013-06-14 23:08:00,
2013-06-14 19:10:00,78.6,50.9,29.86,NNW,338,5.0,14.0,38,0.00,,,0.06,Wunderground PWS Mod,2013-06-14 23:10:00,
2013-06-14 19:14:00,78.2,50.5,59.69,NNW,347,3.0,14.0,38,0.00,,,0.00,Wunderground PWS Mod,2013-06-14 23:14:00,
2013-06-14 19:22:00,77.9,50.9,59.69,NNW,330,2.0,14.0,39,0.00,,,0.00,Wunderground PWS Mod,2013-06-14 23:22:00,
2013-06-14 19:28:00,77.3,50.4,59.70,NNW,332,4.0,14.0,39,0.00,,,0.00,Wunderground PWS Mod,2013-06-14 23:28:00,
2013-06-14 19:34:00,76.9,50.7,59.70,North,349,3.0,14.0,40,0.00,,,0.00,Wunderground PWS Mod,2013-06-14 23:34:00,
2013-06-14 19:42:00,76.7,51.2,59.70,NNW,342,2.0,14.0,41,0.00,,,0.00,Wunderground PWS Mod,2013-06-14 23:42:00,
2013-06-14 19:48:00,76.6,51.1,59.70,NNW,344,3.0,14.0,41,0.00,,,0.00,Wunderground PWS Mod,2013-06-14 23:48:00,
2013-06-14 19:54:00,76.5,51.0,59.70,NNW,346,3.0,14.0,41,0.00,,,0.00,Wunderground PWS Mod,2013-06-14 23:54:00,
2013-06-14 20:02:00,76.5,51.7,59.70,North,349,2.0,10.0,42,0.00,,,0.00,Wunderground PWS Mod,2013-06-15 00:02:00,
2013-06-14 20:08:00,76.1,52.0,59.71,NNW,329,4.0,10.0,43,0.00,,,0.00,Wunderground PWS Mod,2013-06-15 00:08:00,
2013-06-14 20:10:00,76.7,51.9,29.87,NNW,338,3.0,9.0,42,0.00,,,0.06,Wunderground PWS Mod,2013-06-15 00:10:00,
2013-06-14 20:12:00,76.7,51.9,29.87,NNW,338,3.0,9.0,42,0.00,,,0.06,Wunderground PWS Mod,2013-06-15 00:12:00,
2013-06-14 20:14:00,75.9,52.4,59.71,NW,322,1.0,10.0,44,0.00,,,0.00,Wunderground PWS Mod,2013-06-15 00:14:00,
2013-06-14 20:22:00,75.3,52.5,59.71,NW,321,1.0,10.0,45,0.00,,,0.00,Wunderground PWS Mod,2013-06-15 00:22:00,
2013-06-14 20:28:00,74.9,52.1,59.71,NW,321,1.0,10.0,45,0.00,,,0.00,Wunderground PWS Mod,2013-06-15 00:28:00,
2013-06-14 20:34:00,74.8,52.6,59.71,NW,321,2.0,10.0,46,0.00,,,0.00,Wunderground PWS Mod,2013-06-15 00:34:00,
2013-06-14 20:42:00,74.0,52.5,59.72,NW,318,1.0,10.0,47,0.00,,,0.00,Wunderground PWS Mod,2013-06-15 00:42:00,
2013-06-14 20:46:00,73.9,53.5,29.89,NW,315,1.0,4.0,49,0.00,,,0.06,Wunderground PWS Mod,2013-06-15 00:46:00,
2013-06-14 20:48:00,73.7,52.8,59.72,NW,319,1.0,10.0,48,0.00,,,0.00,Wunderground PWS Mod,2013-06-15 00:48:00,
2013-06-14 20:54:00,73.3,52.4,59.72,NNW,334,2.0,10.0,48,0.00,,,0.00,Wunderground PWS Mod,2013-06-15 00:54:00,
2013-06-14 21:02:00,72.7,52.4,59.73,NNW,335,2.0,6.0,49,0.00,,,0.00,Wunderground PWS Mod,2013-06-15 01:02:00,
2013-06-14 21:08:00,72.5,52.8,59.73,NNW,337,1.0,6.0,50,0.00,,,0.00,Wunderground PWS Mod,2013-06-15 01:08:00,
2013-06-14 21:10:00,73.9,53.5,29.89,NW,315,1.0,4.0,49,0.00,,,0.06,Wunderground PWS Mod,2013-06-15 01:10:00,
2013-06-14 21:14:00,72.3,52.6,59.73,NW,326,3.0,6.0,50,0.00,,,0.00,Wunderground PWS Mod,2013-06-15 01:14:00,
2013-06-14 21:22:00,71.9,52.8,59.74,North,349,3.0,6.0,51,0.00,,,0.00,Wunderground PWS Mod,2013-06-15 01:22:00,
2013-06-14 21:28:00,71.8,52.7,59.74,NNW,339,2.0,6.0,51,0.00,,,0.00,Wunderground PWS Mod,2013-06-15 01:28:00,
2013-06-14 21:34:00,71.9,52.2,59.74,North,350,3.0,6.0,50,0.00,,,0.00,Wunderground PWS Mod,2013-06-15 01:34:00,
2013-06-14 21:42:00,71.5,52.4,59.74,NNW,336,3.0,6.0,51,0.00,,,0.00,Wunderground PWS Mod,2013-06-15 01:42:00,
2013-06-14 21:44:00,72.2,53.1,29.91,NNW,338,2.0,5.0,51,0.00,,,0.06,Wunderground PWS Mod,2013-06-15 01:44:00,
2013-06-14 21:48:00,71.5,52.9,59.74,NNW,343,3.0,6.0,52,0.00,,,0.00,Wunderground PWS Mod,2013-06-15 01:48:00,
2013-06-14 21:54:00,71.7,53.1,59.74,North,0,3.0,6.0,52,0.00,,,0.00,Wunderground PWS Mod,2013-06-15 01:54:00,
2013-06-14 22:02:00,72.0,52.9,59.75,North,0,1.0,5.0,51,0.00,,,0.00,Wunderground PWS Mod,2013-06-15 02:02:00,
2013-06-14 22:08:00,71.7,52.6,59.76,North,350,3.0,6.0,51,0.00,,,0.00,Wunderground PWS Mod,2013-06-15 02:08:00,
2013-06-14 22:14:00,71.3,52.8,59.76,NNW,342,1.0,6.0,52,0.00,,,0.00,Wunderground PWS Mod,2013-06-15 02:14:00,
2013-06-14 22:22:00,70.7,52.7,59.76,North,349,1.0,6.0,53,0.00,,,0.00,Wunderground PWS Mod,2013-06-15 02:22:00,
2013-06-14 22:28:00,70.9,52.9,59.76,NNW,329,3.0,6.0,53,0.00,,,0.00,Wunderground PWS Mod,2013-06-15 02:28:00,
2013-06-14 22:34:00,70.5,53.1,59.77,North,0,1.0,6.0,54,0.00,,,0.00,Wunderground PWS Mod,2013-06-15 02:34:00,
2013-06-14 22:42:00,70.7,53.2,59.77,North,357,2.0,6.0,54,0.00,,,0.00,Wunderground PWS Mod,2013-06-15 02:42:00,
2013-06-14 22:48:00,70.4,53.5,59.77,North,358,1.0,6.0,55,0.00,,,0.00,Wunderground PWS Mod,2013-06-15 02:48:00,
2013-06-14 22:50:00,71.3,53.3,29.94,North,0,2.0,4.0,53,0.00,,,0.06,Wunderground PWS Mod,2013-06-15 02:50:00,
2013-06-14 22:52:00,71.3,53.3,29.94,North,0,2.0,4.0,53,0.00,,,0.06,Wunderground PWS Mod,2013-06-15 02:52:00,
2013-06-14 22:54:00,70.6,53.1,59.77,North,358,1.0,6.0,54,0.00,,,0.00,Wunderground PWS Mod,2013-06-15 02:54:00,
2013-06-14 23:02:00,69.7,52.8,59.77,North,358,1.0,4.0,55,0.00,,,0.00,Wunderground PWS Mod,2013-06-15 03:02:00,
2013-06-14 23:08:00,69.8,52.9,59.77,North,358,1.0,4.0,55,0.00,,,0.00,Wunderground PWS Mod,2013-06-15 03:08:00,
2013-06-14 23:14:00,68.8,52.9,59.77,North,358,2.0,4.0,57,0.00,,,0.00,Wunderground PWS Mod,2013-06-15 03:14:00,
2013-06-14 23:22:00,68.4,53.0,59.78,North,358,1.0,4.0,58,0.00,,,0.00,Wunderground PWS Mod,2013-06-15 03:22:00,
2013-06-14 23:28:00,68.5,53.1,59.77,North,358,1.0,4.0,58,0.00,,,0.00,Wunderground PWS Mod,2013-06-15 03:28:00,
2013-06-14 23:34:00,67.7,52.9,59.78,NNW,331,2.0,4.0,59,0.00,,,0.00,Wunderground PWS Mod,2013-06-15 03:34:00,
2013-06-14 23:42:00,67.5,52.7,59.78,NNW,331,2.0,4.0,59,0.00,,,0.00,Wunderground PWS Mod,2013-06-15 03:42:00,
2013-06-14 23:48:00,66.8,52.5,59.78,NNW,331,0.0,4.0,60,0.00,,,0.00,Wunderground PWS Mod,2013-06-15 03:48:00,
2013-06-14 23:54:00,66.9,53.0,59.78,NNW,331,2.0,4.0,61,0.00,,,0.00,Wunderground PWS Mod,2013-06-15 03:54:00,